Wind_Speed
39 39 37 36 36 34 33 32 31 30 30 29 29 30 30 30 30 30 30 31 32 33 34 34 35 35 35 36 36 36 36 37 37 37 37 37 37 37 37 38 38 38 39
41 40 39 37 36 35 34 33 32 32 31 31 31 32 32 31 31 31 32 33 34 34 34 35 35 35 36 36 36 36 36 36 36 37 37 37 37 37 37 38 39 39 39
43 41 40 38 37 36 35 34 34 33 33 33 33 33 33 33 33 33 34 34 35 35 35 35 35 35 36 36 36 36 36 36 36 36 37 37 37 38 38 38 39 40 40
44 43 41 40 38 37 36 35 35 34 34 34 34 34 34 34 34 35 35 35 35 35 35 35 35 35 36 36 36 36 36 36 36 36 37 37 38 38 38 39 40 41 41
45 44 42 41 39 39 38 36 36 35 35 35 35 35 35 35 36 36 36 36 35 35 36 36 35 36 36 36 36 36 36 36 36 36 37 37 38 39 40 40 41 42 43
45 44 43 43 41 40 39 38 37 36 36 36 36 36 36 36 36 36 36 36 36 36 36 36 35 36 36 36 36 35 35 36 36 36 37 38 39 40 41 41 42 43 44
46 45 44 43 42 41 40 39 38 37 37 36 36 36 36 36 36 36 36 36 36 36 36 36 35 35 35 35 35 35 35 36 36 37 38 39 40 40 41 43 43 44 45
47 46 45 43 42 41 40 39 38 37 37 37 36 36 36 36 36 36 36 36 36 36 36 35 35 35 35 35 35 35 35 36 36 37 38 39 41 41 43 44 45 46 47
46 45 45 44 42 41 40 39 39 38 37 37 36 36 36 36 36 35 35 35 35 35 35 35 35 35 34 34 35 35 35 36 37 38 39 40 41 43 45 46 47 48 49
45 45 44 43 41 40 40 40 39 38 37 37 36 36 35 35 35 35 35 35 35 35 35 34 34 34 34 34 34 35 35 36 37 38 39 41 43 44 46 47 48 49 50
44 44 43 42 41 40 40 39 39 38 37 36 36 35 34 34 34 34 34 34 34 34 34 33 33 33 34 34 34 35 36 37 38 39 40 42 44 45 46 47 48 50 52
42 42 41 41 41 40 40 39 38 37 36 35 35 34 34 34 34 34 34 33 33 33 33 33 33 33 34 34 34 35 36 37 39 40 41 43 44 46 47 47 49 51 53
40 40 40 40 40 39 39 38 37 36 35 35 34 34 33 33 33 33 33 33 33 32 32 33 33 33 34 34 35 36 37 38 39 41 42 44 45 46 47 48 50 52 54
39 39 39 39 39 38 37 36 36 35 34 34 34 33 33 33 33 32 32 32 32 32 32 32 33 33 33 34 35 36 37 38 40 41 42 44 45 46 48 50 52 54 56
38 38 38 38 37 37 36 35 34 34 33 33 33 32 32 32 32 31 31 31 31 31 32 32 32 33 33 34 35 36 37 38 40 41 42 44 45 47 49 51 53 55 58
38 38 38 37 37 36 35 34 33 33 33 32 32 31 31 31 31 31 30 30 30 30 31 31 32 33 33 34 35 36 38 39 40 41 42 44 46 48 50 52 54 57 60
39 39 38 37 36 36 35 34 33 32 32 32 31 31 30 30 30 30 30 29 30 30 30 31 32 32 33 35 36 37 38 39 40 41 43 45 47 49 51 53 56 59 62
40 39 39 37 36 35 34 34 33 32 31 31 30 30 29 29 29 29 29 29 29 30 30 31 32 33 34 35 36 37 38 39 41 42 43 45 48 50 53 55 58 61 63
41 39 38 37 36 35 34 33 32 31 30 30 29 29 29 28 28 28 28 28 29 30 31 32 33 34 34 35 36 37 38 40 41 42 44 47 49 52 54 57 60 62 63
41 40 39 38 37 36 34 33 31 30 29 29 29 28 28 28 28 28 28 29 30 30 31 32 33 34 34 35 36 38 39 40 41 43 45 48 51 53 56 58 61 62 63
41 40 39 38 37 36 34 33 31 30 29 29 29 28 28 28 28 28 29 29 30 30 31 32 33 34 35 36 37 38 39 40 42 44 46 49 52 54 57 59 61 62 62
41 40 39 37 36 35 34 33 32 31 30 29 29 28 28 28 28 28 29 29 30 31 32 32 33 34 35 36 37 38 39 41 43 45 47 50 52 55 58 60 60 61 62
40 38 37 36 36 35 34 33 32 31 30 29 29 29 29 28 28 29 29 30 30 31 32 33 33 34 35 36 37 38 39 41 43 45 48 50 53 56 58 59 60 61 61
39 37 36 36 35 35 34 33 32 31 30 29 29 28 28 28 28 29 29 30 31 31 32 33 33 34 35 36 37 38 40 41 43 46 48 51 54 57 58 58 60 61 60
38 37 36 35 34 33 33 32 31 31 30 29 29 28 28 28 29 29 29 30 30 31 31 32 33 33 34 35 36 38 40 42 44 47 49 52 55 57 57 58 59 60 59
39 38 36 35 34 33 32 32 31 31 30 29 29 29 28 29 29 29 30 30 30 31 32 32 32 33 34 35 37 39 41 42 45 47 50 53 55 56 57 58 59 58 57
Wind_Direction
221 222 223 225 227 230 232 235 238 242 245 249 253 257 261 265 269 272 276 280 283 286 288 292 295 296 297 298 299 301 302 303 303 304 304 305 305 305 306 306 306 306 306
220 222 223 226 228 230 233 237 240 243 246 250 254 258 262 266 270 273 276 279 282 286 289 291 293 295 296 297 299 301 301 302 303 303 304 304 305 305 305 306 306 306 306
222 223 224 226 229 232 235 238 241 244 247 252 255 259 262 266 270 273 276 279 282 286 288 290 292 294 295 297 299 300 300 301 302 303 304 304 305 305 305 305 305 306 306
224 225 226 227 230 232 235 238 242 245 249 253 257 260 263 266 270 273 276 279 282 285 287 290 291 293 295 296 298 299 300 300 301 302 303 304 304 304 305 305 306 306 305
226 227 228 229 231 233 236 239 242 246 250 254 258 260 263 267 270 273 276 279 282 284 287 289 291 292 294 295 297 298 299 300 301 302 303 303 304 304 305 305 306 305 305
229 229 230 231 232 234 237 240 243 247 251 254 257 261 264 268 270 273 275 278 281 284 286 288 290 292 293 295 296 297 298 300 301 301 302 303 303 303 304 305 305 305 305
230 231 232 233 234 236 239 241 244 247 250 254 258 261 264 267 270 273 275 278 281 284 286 287 289 291 292 294 295 297 298 299 300 301 302 302 302 302 303 304 304 305 305
231 232 233 234 236 237 239 242 245 247 251 254 257 261 264 267 269 272 275 278 280 282 284 286 288 290 292 293 294 296 298 299 300 301 301 301 301 302 303 304 305 305 305
231 232 233 234 235 237 239 242 244 247 250 254 257 260 263 266 269 271 274 276 279 281 284 285 287 289 291 292 294 296 297 299 300 301 301 302 302 303 304 305 305 305 306
231 232 233 235 236 238 240 241 244 247 251 254 257 260 263 265 268 270 273 275 278 280 282 285 287 288 290 291 294 296 297 299 300 300 301 302 302 303 305 305 305 306 306
230 231 233 234 236 237 239 243 246 248 251 254 257 259 262 265 267 269 272 274 277 279 282 284 285 288 289 292 294 295 297 299 299 301 302 302 303 304 305 305 305 306 306
230 231 232 234 235 237 240 243 246 248 251 254 256 259 261 264 266 268 271 274 276 279 281 282 285 288 290 292 293 295 297 298 299 301 302 302 304 305 306 306 306 306 307
228 230 231 234 236 238 240 242 245 248 250 253 256 258 260 263 265 267 270 272 275 278 280 282 285 287 289 292 293 295 297 298 300 301 302 303 305 306 306 306 306 307 308
226 228 230 233 235 237 239 242 245 248 250 252 255 258 260 262 264 267 269 272 275 278 280 282 285 287 290 292 294 296 297 299 300 302 303 304 306 306 306 306 307 308 309
224 226 228 231 233 236 239 242 244 247 250 252 255 257 260 262 264 267 270 273 275 277 280 283 285 287 290 292 294 296 298 299 301 302 304 306 307 307 307 308 308 309 310
223 225 227 230 233 236 238 241 244 246 249 252 254 256 259 261 264 267 270 273 275 278 281 284 286 288 290 292 295 297 298 300 302 304 306 307 308 308 309 309 310 311 311
222 225 228 231 233 235 238 242 244 246 249 252 254 256 259 261 264 267 270 273 276 278 281 284 287 289 291 293 295 297 299 301 303 305 307 308 309 309 310 310 311 312 311
222 224 227 230 232 235 238 241 244 247 250 252 255 257 259 261 264 267 269 273 276 279 282 285 287 290 292 294 296 298 300 302 304 306 307 309 310 310 311 312 313 313 312
222 224 228 230 232 235 238 240 244 247 250 253 255 257 259 261 263 266 269 273 276 279 282 285 288 290 292 294 297 299 301 303 305 307 308 310 311 312 312 313 314 314 314
222 224 227 230 233 235 238 241 243 246 249 252 254 257 258 260 263 266 270 274 278 281 284 286 289 291 293 295 297 300 301 304 306 308 309 311 313 314 314 315 315 315 315
221 223 227 229 232 234 237 240 243 245 248 251 253 256 258 260 263 267 271 275 279 282 284 287 289 292 294 296 299 301 303 305 307 309 311 312 314 315 315 316 316 317 317
222 224 227 229 230 233 236 239 241 244 247 250 253 256 259 262 264 268 272 276 280 282 285 287 291 293 296 298 300 303 305 307 308 311 312 314 315 317 317 318 318 318 318
223 225 227 227 230 232 235 237 239 243 246 250 252 255 259 263 266 269 274 277 280 283 286 289 292 295 297 299 302 304 306 308 310 312 314 315 317 318 319 319 319 319 319
223 225 225 227 230 232 234 235 238 241 245 249 251 255 258 262 267 272 275 278 281 284 287 290 293 296 298 300 303 305 307 309 311 313 315 317 318 319 320 320 321 321 321
221 223 225 226 229 231 233 235 237 241 245 248 251 254 259 264 269 273 277 280 283 286 289 291 294 296 298 301 303 306 308 310 312 315 316 318 320 321 321 321 322 322 322
219 222 225 226 228 231 232 234 237 241 245 248 251 255 260 265 269 273 278 281 284 287 289 292 294 297 299 301 304 307 309 311 314 316 317 319 321 322 322 322 323 324 323
Height
5780 5783 5787 5791 5794 5798 5801 5804 5807 5809 5811 5813 5815 5815 5816 5816 5816 5815 5814 5813 5812 5810 5809 5807 5804 5801 5799 5796 5793 5790 5786 5783 5779 5775 5771 5767 5763 5759 5755 5751 5747 5743 5738
5772 5776 5780 5784 5788 5791 5795 5798 5801 5803 5805 5807 5808 5809 5809 5809 5809 5809 5808 5807 5805 5804 5802 5800 5797 5795 5792 5789 5786 5783 5779 5776 5772 5768 5764 5761 5757 5753 5748 5744 5740 5735 5731
5764 5769 5773 5777 5781 5785 5788 5791 5794 5796 5798 5799 5800 5801 5802 5802 5802 5802 5801 5799 5798 5796 5795 5792 5790 5788 5785 5782 5779 5776 5772 5769 5765 5761 5758 5753 5750 5746 5742 5737 5732 5728 5723
5757 5761 5766 5770 5774 5778 5781 5784 5786 5788 5790 5792 5793 5794 5795 5795 5795 5794 5793 5792 5791 5789 5787 5785 5783 5780 5778 5775 5772 5768 5765 5762 5758 5754 5750 5746 5742 5738 5734 5730 5725 5720 5715
5748 5753 5758 5762 5766 5770 5773 5776 5778 5781 5783 5784 5786 5787 5787 5787 5787 5786 5785 5784 5783 5782 5780 5778 5775 5773 5770 5767 5764 5761 5758 5754 5751 5747 5743 5739 5734 5730 5726 5722 5717 5712 5707
5740 5745 5749 5754 5758 5762 5765 5768 5771 5773 5775 5777 5778 5779 5779 5779 5779 5778 5777 5776 5775 5774 5772 5770 5768 5765 5763 5760 5757 5754 5750 5747 5743 5739 5735 5731 5727 5722 5718 5713 5708 5704 5698
5730 5735 5740 5745 5750 5754 5757 5760 5763 5765 5767 5769 5770 5771 5771 5771 5771 5770 5770 5769 5768 5766 5764 5762 5760 5758 5755 5752 5749 5746 5743 5739 5736 5732 5728 5723 5719 5714 5709 5704 5699 5694 5689
5721 5726 5731 5736 5741 5745 5749 5752 5755 5757 5759 5761 5762 5763 5763 5763 5763 5762 5762 5761 5760 5758 5757 5755 5753 5750 5748 5745 5742 5739 5735 5732 5728 5724 5720 5715 5710 5706 5700 5695 5690 5685 5680
5711 5717 5722 5727 5732 5736 5740 5743 5746 5749 5751 5752 5753 5754 5754 5755 5755 5754 5754 5753 5752 5750 5749 5747 5745 5743 5740 5737 5734 5731 5728 5724 5720 5716 5712 5707 5702 5697 5691 5686 5680 5675 5669
5701 5707 5712 5718 5723 5727 5731 5734 5737 5740 5742 5744 5745 5746 5746 5746 5746 5746 5746 5745 5744 5743 5741 5739 5737 5735 5733 5730 5727 5723 5720 5716 5712 5708 5703 5698 5693 5688 5682 5676 5670 5664 5658
5692 5698 5703 5708 5713 5717 5721 5725 5728 5731 5733 5735 5736 5737 5738 5738 5738 5738 5738 5737 5736 5735 5733 5732 5730 5727 5725 5722 5719 5715 5712 5708 5704 5699 5695 5690 5684 5679 5673 5666 5660 5654 5647
5683 5688 5694 5699 5703 5708 5712 5716 5719 5722 5724 5726 5728 5729 5730 5730 5730 5730 5730 5729 5728 5727 5726 5724 5722 5720 5717 5714 5711 5707 5704 5700 5696 5691 5686 5681 5675 5669 5663 5657 5650 5643 5636
5674 5679 5685 5690 5695 5699 5703 5707 5710 5713 5716 5718 5719 5720 5721 5722 5722 5722 5722 5721 5720 5719 5718 5716 5714 5712 5709 5706 5703 5699 5696 5691 5687 5682 5677 5672 5666 5660 5653 5647 5640 5633 5625
5665 5671 5676 5681 5686 5690 5694 5698 5701 5704 5707 5709 5711 5712 5713 5714 5714 5714 5714 5713 5712 5711 5710 5708 5706 5704 5701 5698 5695 5691 5687 5683 5678 5673 5668 5662 5656 5650 5643 5636 5629 5622 5614
5657 5662 5667 5672 5677 5681 5685 5689 5693 5696 5698 5700 5702 5703 5705 5705 5706 5706 5706 5705 5704 5703 5702 5700 5698 5696 5693 5690 5686 5683 5679 5674 5669 5664 5659 5653 5646 5640 5633 5626 5618 5610 5602
5648 5653 5658 5664 5668 5673 5677 5681 5684 5687 5690 5692 5694 5695 5696 5697 5697 5698 5697 5697 5696 5695 5694 5692 5690 5688 5685 5682 5678 5674 5670 5665 5660 5655 5649 5643 5637 5630 5623 5615 5607 5598 5589
5640 5645 5650 5655 5660 5665 5669 5673 5676 5679 5681 5684 5685 5687 5688 5689 5690 5690 5690 5689 5689 5688 5686 5684 5682 5680 5677 5673 5670 5665 5661 5656 5651 5646 5640 5634 5627 5620 5612 5604 5596 5586 5575
5631 5637 5642 5647 5652 5657 5661 5665 5668 5671 5673 5675 5677 5679 5680 5681 5682 5682 5682 5682 5681 5680 5678 5676 5674 5671 5668 5665 5661 5657 5652 5647 5642 5637 5631 5624 5617 5609 5602 5593 5584 5574 5563
5623 5629 5634 5639 5644 5649 5653 5657 5660 5663 5665 5668 5670 5671 5673 5674 5674 5674 5674 5674 5673 5672 5670 5668 5666 5663 5660 5656 5652 5648 5643 5638 5633 5627 5621 5614 5607 5599 5591 5582 5572 5562 5550
5615 5621 5626 5631 5636 5641 5645 5649 5652 5655 5658 5660 5662 5663 5665 5666 5666 5666 5666 5666 5665 5663 5662 5660 5657 5654 5651 5647 5643 5639 5635 5630 5624 5618 5612 5605 5597 5588 5578 5569 5559 5548 5537
5607 5613 5618 5624 5629 5633 5637 5641 5645 5648 5650 5652 5654 5656 5657 5658 5658 5658 5658 5658 5657 5655 5654 5651 5649 5645 5642 5639 5635 5630 5626 5620 5615 5608 5602 5594 5586 5577 5567 5557 5546 5535 5524
5599 5605 5610 5616 5621 5625 5630 5634 5637 5640 5642 5645 5647 5648 5649 5650 5650 5651 5650 5649 5648 5647 5645 5643 5640 5637 5634 5630 5626 5621 5617 5611 5605 5599 5592 5584 5575 5566 5556 5545 5534 5523 5512
5592 5597 5603 5608 5613 5618 5622 5626 5630 5632 5635 5637 5639 5641 5642 5642 5643 5643 5642 5641 5640 5639 5637 5634 5632 5628 5625 5621 5617 5612 5607 5602 5596 5589 5582 5574 5565 5555 5545 5534 5523 5512 5500
5584 5590 5596 5600 5605 5610 5614 5618 5622 5625 5627 5630 5632 5633 5634 5635 5635 5635 5634 5633 5632 5630 5628 5626 5623 5620 5616 5613 5608 5604 5598 5593 5587 5580 5572 5564 5555 5545 5534 5523 5512 5501 5489
5576 5583 5588 5593 5598 5602 5606 5610 5614 5617 5620 5622 5624 5625 5626 5627 5627 5627 5626 5625 5624 5622 5620 5617 5614 5611 5608 5604 5600 5595 5590 5584 5577 5570 5562 5554 5544 5534 5523 5512 5502 5490 5479
5568 5574 5580 5585 5590 5594 5599 5602 5606 5609 5612 5614 5616 5618 5619 5619 5619 5619 5618 5617 5615 5613 5611 5609 5606 5603 5600 5595 5591 5586 5581 5575 5568 5561 5552 5544 5534 5523 5513 5502 5491 5480 5469